Regional Weather Roundup
Issued by NWS

Home | Current Version | Previous Version | Text Only | Print | Product List | Glossary On
Versions: 1 2 3 4 5 6 7 8 9 10 11 12 13 14 15 16 17 18 19 20 21 22 23 24 25 26 27 28 29 30 31 32 33 34 35 36 37 38 39 40 41 42 43 44 45 46 47 48 49 50
000
ASUS45 KCYS 012210
RWRWY

WYOMING REGIONAL WEATHER ROUNDUP
NATIONAL WEATHER SERVICE CHEYENNE WY
400 PM MDT TUE SEP 01 2015

NOTE:  "FAIR" INDICATES FEW OR NO CLOUDS BELOW 12,000 FEET
WITH NO SIGNIFICANT WEATHER AND/OR OBSTRUCTIONS TO VISIBILITY.

WYZ001-012300-
YELLOWSTONE NATIONAL PARK

CITY           SKY/WX    TMP DP  RH WIND       PRES   REMARKS
LK YELLOWSTONE   N/A     72  21  14 W13G23    30.17F
W YELLOWSTONE  NOT AVBL

$$
WYZ002>013-054>058-071-098>099-012300-
NORTHERN WYOMING

CITY           SKY/WX    TMP DP  RH WIND       PRES   REMARKS
JACKSON        FAIR      81  30  16 SW15G24   30.05F
CODY           FAIR      88  30  12 SE17      29.88F
GREYBULL       FAIR      93  25   8 S9        29.81F
WORLAND        FAIR      93  28  10 VRB7      29.82F
SHERIDAN       FAIR      93  28  10 NE10      29.83F
BUFFALO        FAIR      90  27  10 E8        29.92F
GILLETTE       FAIR      90  28  11 W12       29.89F
HULETT         FAIR      88  32  13 W6        29.90F
NEWCASTLE        N/A     88  32  13 E8        29.90F

$$
WYZ014>020-022>026-101>103-012300-
CENTRAL WYOMING

CITY           SKY/WX    TMP DP  RH WIND       PRES   REMARKS
BIG PINEY      FAIR      83  26  12 W12G22    30.11F
PINEDALE       FAIR      79  28  15 W13G22    30.11F
DUBOIS         MOCLDY    75  27  16 W21       30.09S
LANDER         FAIR      89  32  13 NW14G23   29.94F
RIVERTON       FAIR      90  30  11 SW12G24   29.95F
CASPER         FAIR      90  27  10 SW14G23   29.97F
DOUGLAS        FAIR      92  29  10 W10G22    29.95F

$$
WYZ021-027>030-104>119-012300-
SOUTHERN WYOMING

CITY           SKY/WX    TMP DP  RH WIND       PRES   REMARKS
EVANSTON       PTSUNNY   73  37  27 S22       30.15F
KEMMERER       FAIR      79  30  17 W20       30.15F
FORT BRIDGER   CLEAR     79  36  21 SW13G23   30.18F
ROCK SPRINGS   HVY RAIN  63  47  55 SW18G31   30.16R
DIXON          FAIR      79  39  23 NW15      30.16F
RAWLINS        PTSUNNY   82  35  18 SW16G23   30.13F
SARATOGA       FAIR      77  36  22 SW15G22   30.18S
LARAMIE        FAIR      79  35  20 W14G21    30.17F
CHEYENNE       FAIR      86  34  15 NW12G21   30.09S
TORRINGTON     FAIR      93  34  12 S7        29.90F
PINE BLUFFS    FAIR      86  32  14 CALM      30.01F

$$



USA.gov is the U.S. government's official web portal to all federal, state and local government web resources and services.